Wind_Speed
15 10 9 21 20 21 21 2 4 17 26 30 15 11 11 12 8 12 10 10 8 7 7 7 6 7 7 8 10 10 10 8 6 7 5 4 3 2 4 5 4 6 5 3
15 9 12 16 19 23 16 18 11 16 22 22 20 14 14 12 3 11 11 6 7 7 4 5 5 6 5 5 6 8 9 8 6 7 6 4 3 2 6 4 4 5 3 4
20 9 4 11 15 9 16 2 14 19 16 23 24 18 9 10 2 14 3 3 7 9 6 6 5 4 3 3 4 5 9 8 6 7 6 3 1 4 4 4 3 5 3 3
14 4 5 11 14 9 9 13 20 24 11 18 18 29 14 5 2 8 2 3 3 10 6 6 6 8 5 4 6 6 7 8 7 7 6 3 0 3 4 5 4 4 3 2
10 6 12 7 14 11 12 6 11 8 9 16 16 21 6 2 6 2 10 7 5 3 11 6 6 7 5 7 7 7 8 7 6 6 4 2 1 2 1 1 0 3 2 3
19 12 18 23 19 17 10 15 7 13 24 24 22 22 15 18 13 6 9 13 10 5 4 5 8 8 5 5 7 7 7 7 6 5 4 2 3 2 2 3 3 2 3 5
7 8 9 4 13 12 12 10 10 10 11 8 20 24 19 14 15 20 4 13 9 8 2 6 9 8 10 7 5 5 5 6 5 5 5 4 5 5 4 4 4 3 4 4
7 16 9 18 7 8 21 11 9 19 17 18 19 14 20 24 6 15 12 12 10 9 5 3 7 7 10 7 5 4 5 6 6 7 7 7 6 6 5 5 4 3 4 4
11 6 7 13 5 7 17 15 3 1 11 15 20 15 23 25 11 18 10 15 9 10 8 3 3 4 1 4 5 4 5 8 9 10 10 9 7 7 7 8 7 5 5 4
14 9 2 8 8 10 8 16 4 2 6 19 13 15 19 6 13 10 17 17 13 13 6 4 5 4 1 0 3 5 6 7 9 12 13 11 9 8 9 9 6 5 4 4
21 10 6 8 9 4 4 7 9 2 16 9 19 12 5 4 2 4 10 15 7 5 8 4 3 5 6 4 3 3 7 10 11 11 11 11 8 8 10 9 8 7 6 6
25 15 8 4 4 10 10 3 6 7 12 18 18 18 7 13 2 1 4 6 4 2 3 2 3 4 7 6 4 2 5 8 10 10 12 11 9 10 11 10 10 9 8 8
18 17 9 6 18 11 17 15 12 9 11 14 20 21 24 19 2 11 11 10 11 10 6 4 7 7 9 7 7 7 4 8 11 11 13 14 15 14 14 13 13 13 11 10
14 21 5 14 15 9 13 20 12 14 18 16 19 13 17 24 15 4 7 13 15 20 23 20 13 9 18 18 6 13 12 10 12 14 16 17 19 18 19 18 18 18 17 14
24 24 7 4 8 12 15 6 10 15 24 22 23 22 25 11 7 4 9 10 14 18 23 26 25 22 25 24 15 17 20 14 16 21 19 18 21 23 23 21 23 25 23 20
29 31 19 15 6 6 3 12 7 7 14 27 28 33 37 36 26 26 23 15 19 20 23 25 29 30 28 28 24 23 28 27 27 20 23 22 19 22 26 28 28 29 30 29
24 38 32 23 14 13 10 10 13 16 17 25 34 38 37 34 34 33 24 19 19 21 22 26 27 25 25 27 30 29 29 42 34 28 28 23 23 19 19 23 25 25 28 31
15 24 34 29 26 19 20 19 19 18 21 29 33 37 35 28 24 25 25 21 19 21 23 26 29 30 33 33 33 33 33 38 49 41 34 39 33 25 22 22 24 26 26 28
15 16 21 20 27 21 20 26 19 24 29 28 32 38 42 43 38 26 24 26 26 25 26 27 29 30 33 34 36 39 39 40 40 38 40 34 33 25 25 27 28 26 28 30
13 14 15 16 20 24 26 26 25 24 27 27 29 32 33 31 29 25 23 23 25 25 29 29 31 32 34 36 37 38 40 41 41 39 35 31 19 29 29 30 31 34 30 35
11 11 10 12 15 20 22 21 24 25 29 30 30 28 26 25 25 26 27 27 25 27 29 32 33 34 32 34 37 38 38 39 40 39 35 33 27 31 30 30 32 33 34 40
10 13 15 16 16 22 15 12 16 18 21 22 20 21 24 25 27 28 29 27 25 27 29 29 31 34 36 34 36 38 37 37 38 39 35 33 32 34 34 36 41 38 44 40
14 14 14 15 13 12 10 8 10 16 19 20 21 24 23 24 26 29 25 23 28 28 28 27 30 32 32 36 36 36 37 36 35 36 34 31 29 30 33 37 41 45 45 45
10 9 14 17 14 15 14 16 19 19 19 21 23 23 25 25 22 22 25 24 26 24 22 22 22 24 25 25 28 30 28 27 28 27 27 25 28 30 33 37 34 37 39 38
18 14 16 21 20 14 15 17 23 20 20 22 24 25 24 21 18 22 22 21 17 16 19 18 18 22 26 25 27 29 27 21 17 19 21 20 22 26 33 31 30 33 38 38
17 15 14 18 21 20 18 17 22 23 22 23 23 23 20 16 17 19 19 15 17 21 20 13 17 22 25 24 24 27 27 21 17 15 17 18 17 20 27 28 29 27 27 25
Wind_Direction
168 153 86 124 106 94 75 153 80 319 335 349 158 122 83 86 125 111 105 111 107 118 128 130 135 141 151 149 151 147 146 141 135 129 143 139 109 17 21 358 81 24 3 328
165 120 93 109 102 73 59 80 295 322 332 340 2 102 78 39 58 103 88 107 134 133 135 138 146 148 153 157 163 158 156 151 153 159 158 128 78 2 352 20 14 12 16 17
160 183 76 128 123 71 1 179 259 283 331 315 331 15 35 54 227 254 74 115 153 141 160 155 143 147 161 172 171 184 170 174 174 175 165 141 50 345 10 4 25 30 49 94
171 182 117 161 142 114 329 241 248 279 301 292 316 358 345 44 339 320 158 144 198 127 143 149 157 151 184 195 194 198 202 205 202 188 185 179 209 9 15 358 38 73 95 75
162 70 334 296 185 179 209 117 107 52 285 307 318 344 316 47 172 184 182 202 235 158 131 156 161 149 184 186 212 212 215 218 208 189 198 236 279 8 48 80 61 73 86 84
157 184 223 242 211 216 144 111 89 13 335 291 293 309 312 300 254 203 181 204 182 259 130 135 153 153 177 192 207 205 206 205 207 213 239 264 287 263 210 197 162 115 79 72
87 17 10 280 239 236 166 158 71 35 330 278 286 309 310 309 242 214 153 184 191 163 244 161 144 168 156 168 195 200 202 217 228 249 252 269 287 274 224 205 201 165 137 106
16 314 316 308 256 218 186 181 55 341 328 320 329 329 341 313 255 115 125 132 161 149 216 186 119 145 141 152 160 209 209 222 236 255 261 275 280 269 224 213 204 197 146 152
118 72 264 287 290 215 207 145 204 284 317 326 335 326 338 324 343 109 85 110 130 104 134 183 160 85 113 176 154 212 229 245 252 258 258 259 263 264 234 208 195 209 170 171
159 133 322 345 304 273 230 207 165 213 338 317 329 319 350 37 358 341 133 128 73 136 145 61 8 347 292 315 208 211 235 246 252 262 265 263 255 241 231 219 215 198 208 202
186 167 151 8 354 244 121 102 125 87 332 309 312 307 166 166 227 331 353 15 68 79 150 102 320 334 297 291 279 241 246 246 256 259 261 249 237 231 228 229 217 207 208 215
204 193 181 228 296 326 175 130 261 309 298 304 315 295 276 242 293 310 311 351 282 104 73 36 344 299 296 306 299 286 263 257 247 253 251 239 232 230 235 231 220 218 232 217
215 188 165 175 214 183 215 202 205 233 276 295 312 300 281 230 341 339 324 338 337 315 290 269 263 264 284 291 302 303 269 260 244 235 244 241 236 237 238 236 232 234 237 244
188 166 110 317 282 163 206 201 228 217 248 291 307 314 260 323 311 266 314 320 318 305 299 287 276 292 274 259 265 303 281 255 261 243 238 243 243 242 248 250 249 251 246 243
176 173 180 235 271 227 228 210 211 267 238 267 287 306 290 284 265 315 293 286 282 286 282 281 282 279 277 282 303 303 298 289 289 291 271 242 251 256 253 252 258 259 258 256
189 184 197 210 259 207 247 229 230 265 277 265 283 278 278 286 294 308 304 278 272 270 260 262 272 274 277 280 281 277 282 281 276 268 270 271 264 257 259 259 253 259 261 258
200 205 212 198 201 207 203 241 228 249 254 266 271 274 279 288 292 285 286 279 279 277 269 258 255 262 267 261 273 273 278 267 248 271 268 260 259 257 264 268 268 267 270 271
211 214 227 219 217 213 219 220 230 231 252 258 267 280 288 295 302 294 293 288 281 274 270 269 265 259 259 263 268 271 269 272 282 291 307 265 269 256 252 256 263 267 260 258
232 223 221 226 223 232 226 235 234 235 246 258 264 274 281 284 296 303 292 288 282 277 272 270 270 270 266 264 263 266 269 273 280 287 291 298 298 249 268 268 267 263 268 271
238 240 236 230 231 240 232 243 261 268 277 272 280 283 287 292 293 295 286 282 282 276 276 271 270 272 271 272 270 268 270 274 279 281 284 284 285 272 283 281 279 269 270 275
230 240 245 244 242 244 251 253 250 260 270 278 283 287 287 291 297 298 295 291 281 276 275 278 279 274 270 274 275 273 273 274 276 278 281 281 281 275 273 279 275 271 277 273
235 232 232 230 231 242 271 281 264 267 269 275 284 289 292 295 297 297 294 295 289 286 286 285 283 281 282 277 274 274 273 272 273 276 278 279 279 283 285 281 279 269 272 267
236 242 256 267 277 278 278 285 271 262 274 286 287 290 289 292 297 294 298 293 293 294 292 286 285 286 285 285 284 282 279 277 274 273 276 280 281 278 280 280 281 279 275 270
247 260 262 279 269 271 279 275 278 290 291 287 289 291 295 298 297 297 296 300 301 304 298 305 303 299 298 294 295 297 296 294 282 275 275 273 272 274 274 276 275 274 271 270
269 257 263 272 274 273 274 281 281 290 288 290 293 297 298 300 301 292 297 300 301 311 309 298 297 300 300 300 298 297 298 302 296 284 285 273 267 273 274 277 280 269 264 260
263 267 260 265 276 283 279 273 279 285 290 291 292 296 299 304 297 297 303 297 296 306 313 296 301 310 310 313 306 300 295 296 290 290 282 288 285 285 278 281 288 272 253 253
Height
5923 5926 5932 5933 5935 5933 5932 5925 5929 5933 5934 5930 5929 5928 5924 5921 5929 5926 5926 5926 5929 5931 5933 5935 5938 5941 5942 5943 5945 5946 5948 5949 5950 5951 5953 5953 5954 5954 5955 5954 5956 5955 5954 5955
5925 5929 5929 5932 5936 5936 5938 5926 5933 5936 5936 5929 5924 5927 5923 5924 5928 5927 5926 5929 5930 5932 5934 5936 5939 5941 5943 5944 5946 5947 5948 5949 5949 5951 5953 5954 5954 5953 5953 5955 5955 5955 5953 5953
5923 5925 5929 5933 5933 5934 5938 5941 5938 5936 5940 5928 5926 5913 5920 5924 5929 5912 5927 5931 5932 5933 5934 5937 5939 5941 5943 5944 5946 5947 5948 5949 5950 5951 5952 5953 5953 5953 5953 5954 5953 5952 5953 5954
5925 5924 5928 5931 5932 5936 5938 5938 5940 5937 5938 5937 5935 5935 5930 5929 5929 5927 5929 5931 5933 5931 5935 5937 5939 5942 5943 5945 5946 5947 5948 5949 5949 5950 5952 5952 5952 5952 5953 5954 5954 5955 5956 5956
5926 5927 5926 5927 5932 5933 5934 5935 5938 5938 5936 5935 5937 5939 5935 5933 5929 5926 5927 5932 5934 5931 5933 5936 5938 5941 5942 5944 5945 5947 5948 5949 5950 5950 5951 5951 5952 5952 5952 5952 5954 5955 5956 5956
5919 5923 5926 5928 5930 5932 5932 5935 5938 5937 5933 5932 5935 5937 5936 5933 5932 5928 5927 5928 5928 5933 5931 5934 5936 5940 5942 5943 5944 5946 5947 5948 5949 5950 5950 5950 5951 5952 5952 5953 5954 5955 5955 5956
5923 5926 5927 5927 5928 5931 5932 5934 5933 5936 5935 5932 5933 5936 5934 5927 5929 5927 5927 5925 5929 5929 5931 5933 5935 5939 5941 5942 5944 5945 5946 5947 5948 5949 5949 5949 5950 5951 5952 5953 5954 5956 5956 5957
5920 5923 5926 5925 5926 5928 5928 5929 5932 5933 5934 5933 5933 5935 5934 5921 5921 5920 5923 5925 5928 5925 5931 5933 5933 5936 5940 5942 5943 5944 5945 5947 5948 5948 5949 5949 5950 5950 5951 5952 5953 5955 5955 5956
5920 5919 5923 5924 5924 5927 5929 5930 5930 5934 5932 5932 5933 5936 5935 5922 5919 5918 5920 5914 5922 5924 5932 5934 5935 5934 5937 5940 5943 5943 5944 5945 5946 5946 5946 5947 5948 5949 5950 5950 5952 5953 5954 5955
5919 5920 5924 5926 5925 5925 5928 5930 5932 5933 5933 5932 5932 5934 5933 5926 5911 5911 5898 5898 5917 5924 5932 5935 5937 5937 5936 5938 5939 5941 5943 5943 5944 5944 5944 5944 5945 5946 5947 5949 5950 5951 5953 5954
5919 5921 5922 5924 5925 5925 5928 5929 5933 5934 5932 5930 5930 5930 5927 5923 5922 5921 5921 5931 5929 5930 5931 5933 5936 5938 5939 5938 5939 5939 5940 5941 5942 5942 5941 5941 5942 5943 5944 5946 5948 5949 5951 5951
5917 5919 5920 5922 5926 5927 5926 5928 5932 5933 5930 5929 5926 5927 5929 5927 5921 5924 5923 5927 5933 5933 5933 5932 5934 5935 5937 5937 5936 5938 5939 5937 5938 5938 5939 5939 5939 5940 5941 5943 5944 5945 5946 5947
5916 5920 5920 5922 5923 5918 5925 5929 5930 5931 5928 5925 5922 5924 5925 5927 5926 5922 5925 5929 5930 5928 5932 5932 5931 5932 5933 5935 5935 5935 5936 5934 5934 5935 5935 5936 5936 5937 5938 5939 5940 5940 5941 5942
5914 5918 5919 5918 5918 5919 5921 5923 5925 5928 5925 5921 5918 5920 5921 5921 5926 5926 5929 5928 5927 5925 5925 5928 5929 5930 5931 5932 5930 5932 5931 5933 5932 5931 5933 5933 5933 5932 5933 5935 5936 5937 5937 5939
5911 5913 5912 5914 5918 5918 5923 5922 5924 5925 5924 5917 5911 5911 5915 5924 5926 5925 5928 5930 5932 5931 5926 5921 5921 5925 5922 5922 5919 5928 5929 5931 5932 5933 5931 5930 5931 5933 5930 5930 5931 5931 5930 5931
5905 5907 5905 5910 5914 5916 5920 5919 5916 5922 5921 5913 5913 5913 5914 5916 5921 5923 5921 5920 5921 5923 5925 5921 5915 5917 5922 5921 5922 5924 5922 5923 5922 5924 5926 5926 5927 5927 5928 5927 5923 5925 5926 5923
5902 5904 5903 5908 5908 5911 5916 5919 5920 5918 5918 5912 5909 5909 5911 5915 5920 5919 5916 5916 5913 5912 5915 5914 5916 5917 5916 5919 5917 5917 5919 5903 5896 5913 5922 5923 5922 5919 5921 5923 5923 5922 5923 5924
5900 5902 5904 5907 5906 5910 5912 5912 5914 5914 5914 5910 5906 5907 5908 5909 5912 5910 5909 5909 5909 5908 5907 5905 5906 5911 5912 5912 5911 5912 5912 5912 5898 5902 5917 5916 5917 5915 5912 5913 5915 5915 5915 5916
5896 5898 5901 5903 5905 5909 5906 5906 5911 5910 5910 5908 5906 5904 5903 5903 5902 5905 5903 5901 5901 5901 5900 5899 5898 5900 5901 5903 5904 5903 5903 5903 5902 5904 5906 5907 5903 5908 5911 5908 5907 5907 5909 5911
5892 5893 5896 5899 5901 5903 5903 5904 5905 5906 5905 5905 5905 5902 5901 5900 5897 5896 5895 5896 5894 5893 5891 5892 5891 5893 5892 5892 5894 5895 5895 5894 5894 5897 5899 5901 5898 5898 5899 5898 5898 5900 5902 5902
5888 5890 5892 5894 5895 5895 5895 5898 5900 5901 5902 5901 5901 5899 5896 5895 5893 5890 5888 5887 5887 5886 5884 5881 5881 5882 5886 5885 5883 5883 5886 5888 5888 5890 5891 5892 5889 5889 5888 5887 5887 5890 5892 5891
5886 5888 5888 5889 5890 5890 5891 5895 5896 5897 5896 5895 5895 5894 5890 5888 5886 5883 5881 5879 5879 5877 5875 5875 5872 5871 5871 5874 5873 5871 5872 5875 5876 5875 5879 5880 5880 5878 5877 5877 5876 5879 5878 5881
5884 5885 5886 5887 5888 5888 5888 5891 5892 5891 5891 5890 5889 5887 5887 5885 5881 5877 5875 5875 5871 5869 5868 5865 5863 5862 5862 5858 5857 5860 5862 5864 5864 5863 5864 5868 5869 5869 5867 5868 5865 5862 5865 5867
5882 5883 5882 5882 5884 5884 5885 5886 5885 5886 5885 5884 5883 5882 5880 5877 5875 5873 5869 5868 5865 5862 5860 5858 5856 5853 5852 5851 5848 5848 5851 5854 5855 5855 5856 5858 5859 5858 5856 5858 5857 5854 5854 5855
5878 5880 5880 5878 5877 5881 5881 5881 5879 5880 5880 5879 5877 5875 5873 5872 5871 5867 5865 5862 5860 5860 5857 5854 5851 5849 5847 5845 5843 5841 5840 5845 5845 5845 5844 5846 5849 5849 5848 5847 5842 5839 5839 5844
5873 5875 5876 5875 5874 5875 5877 5877 5874 5874 5874 5873 5872 5870 5867 5868 5865 5863 5861 5858 5856 5854 5851 5850 5848 5846 5843 5841 5839 5836 5835 5836 5837 5837 5836 5839 5841 5840 5836 5834 5833 5831 5830 5834